Weather in Gashun-Burgusta

Russia / Republic of Kalmykia     47°14′07″N   44°30′04″E
temp.,
°C
wind,
m/s
gust,
m/s
humid.,
%
clouds,
%
prec.,
mm/h
press.,
hPa
HPBL,
m
14 may, fri
fri1400:00+19e33507 0.0 101511
03:00+17ese3361100 0.0 101533
06:00+17ese39695 0.0 1016252
09:00+22se6104958 0.0 1015570
12:00+28se812345 0.0 10151247
15:00+31sse914265 0.0 10132023
18:00+28se814335 0.0 1013406
21:00+21se514405 0.0 1015307
15 may, sat
sat1500:00+18ese514415 0.0 1015254
03:00+16ese413435 0.0 1015204
06:00+17ese4144558 0.0 1015311
09:00+25se8132954 0.0 1015567
12:00+30sse913181 0.0 10141695
15:00+32sse911160 0.0 10132516
18:00+27se713240 0.0 1014346
21:00+21se514340 0.0 1015244
16 may, sun
sun1600:00+18se4114627 0.0 1014177
03:00+16ese475296 0.0 101493
06:00+18ese3952100 0.0 1014199
09:00+25ese6103397 0.0 1013565
12:00+31se9122086 0.0 10122838
15:00+32se9122260 0.0 10113059
18:00+28se81428100 0.0 1011516
21:00+23ese7172930 0.0 1011458
17 may, mon
mon1700:00+20ese4123718 0.0 1011233
03:00+18e4144384 0.0 1010256
06:00+19e516467 0.0 1010371
09:00+27se9152728 0.0 10101083
12:00+31se121516100 0.0 10092543
15:00+32se11131879 0.0 10092692
18:00+28se8132473 0.0 1009412
21:00+22ese492974 0.0 1011126
18 may, tue
tue1800:00+19ese333287 0.0 101018
03:00+18ene223561 0.0 100913
06:00+20ene1140100 0.0 100916
09:00+25ne1128100 0.0 1009447
12:00+29ese452347 0.0 10091419
15:00+29ssw1223100 0.0 10091154
18:00+28wnw113493 0.0 100916
21:00+22wnw71269100 0.0 1011442